Regional Weather Roundup
Issued by NWS Sioux Falls, SD

Home | Current Version | Previous Version | Text Only | Print | Product List | Glossary Off
Versions: 1 2 3 4 5 6 7 8 9 10 11 12 13 14 15 16 17 18 19 20 21 22 23 24 25 26 27 28 29 30 31 32 33 34 35 36 37 38 39 40 41 42 43 44 45 46 47 48 49 50

000
ASUS43 KFSD 031802
RWRFSD

WEATHER ROUNDUP FOR SE SOUTH DAKOTA/SW MINNESOTA/NW IOWA
NATIONAL WEATHER SERVICE SIOUX FALLS SD
100 PM CDT MON AUG 03 2015

NOTE: "FAIR" INDICATES FEW OR NO CLOUDS BELOW 12,000 FEET WITH NO
SIGNIFICANT WEATHER AND OR OBSTRUCTIONS TO VISIBILITY.


SDZ038>040-050-052>070-031900-
SOUTHEAST SOUTH DAKOTA

CITY           SKY/WX    TMP DP  RH WIND       PRES   REMARKS
BROOKINGS      MOSUNNY   75  55  50 NW14G20   30.01S
CHAMBERLAIN    SUNNY     78  59  50 CALM      30.01F
6HR MIN TEMP:  61; 6HR MAX TEMP:  79;

HURON          MOSUNNY   79  54  41 VRB5      29.98F
6HR MIN TEMP:  56; 6HR MAX TEMP:  80;

MADISON        FAIR      75  55  50 W8        30.01F
MITCHELL       SUNNY     79  58  48 CALM      30.00S
6HR MIN TEMP:  58; 6HR MAX TEMP:  80;

SIOUX FALLS    MOSUNNY   78  57  48 NW9       30.00S
6HR MIN TEMP:  58; 6HR MAX TEMP:  79;

WINNER         FAIR      83  55  38 SE7       30.01F
YANKTON        SUNNY     77  57  50 S5        29.98S
$$

MNZ071-072-080-081-089-090-097-098-031900-
SOUTHWEST MINNESOTA

CITY           SKY/WX    TMP DP  RH WIND       PRES   REMARKS
FAIRMONT       SUNNY     75  50  41 NW12G17   29.97S
JACKSON        SUNNY     77  54  44 NW13      29.99F
LUVERNE        SUNNY     77  54  44 NW9       30.00F
MARSHALL       SUNNY     77  48  36 NW15      29.99F
6HR MIN TEMP:  55; 6HR MAX TEMP:  77;

MONTEVIDEO     SUNNY     79  55  44 N9        29.98F
PIPESTONE      SUNNY     75  54  46 W9        30.00F
REDWOOD FALLS  SUNNY     79  49  34 NW12      29.96S
TRACY          SUNNY     75  55  50 NW6       29.99S
WINDOM         SUNNY     77  52  41 W9        29.98F
WORTHINGTON    MOSUNNY   75  52  43 NW7       30.00S
$$

IAZ001>003-012>014-020>022-031-032-NEZ013-014-SDZ071-031900-
NORTHWEST IOWA

CITY           SKY/WX    TMP DP  RH WIND       PRES   REMARKS
DENISON        SUNNY     77  57  50 NE5       29.97F
ESTHERVILLE    SUNNY     77  53  43 NW7       29.98F
SIOUX CITY     SUNNY     78  59  51 VRB3      29.98F
6HR MIN TEMP:  61; 6HR MAX TEMP:  79;

SPENCER        SUNNY     80  49  33 NW10      29.99F
6HR MIN TEMP:  55; 6HR MAX TEMP:  80;

$$

ABBREVIATIONS USED IN REMARKS
   TC - TEMPERATURE IN CELSIUS
  WCI - WIND CHILL INDEX
   HX - HEAT INDEX
  VSB - VISIBILITY




USA.gov is the U.S. government's official web portal to all federal, state and local government web resources and services.